When you browse on this site, cookies collect data to enhance your experience and personalize the content and advertising you see.
Visit our Privacy Policy to learn more. By continuing to use the site, you agree to this use of cookies and data.
  • In Österreich
  • Länderverzeichnis
  • Für 7 Tage
  • Wassertemperatur
  • Satellitenkarten
  • Wetterkarte
  • News
  • Widgets
  • user-avatar
    Anmelden

    Stündliche Wetter San Luis

    Heute, 18 April, Donnerstag

    Zeit Temperatur Niederschläge Wind Luftdruck Luftfeuchtigkeit
    00:00 +19°C° 0 mm 3 m/S 696 mmHg 72%
    01:00 +19°C° 0 mm 3 m/S 696 mmHg 74%
    02:00 +18°C° 0 mm 3 m/S 696 mmHg 74%
    03:00 +18°C° 0 mm 3 m/S 696 mmHg 76%
    04:00 +18°C° 0 mm 3 m/S 696 mmHg 77%
    05:00 +18°C° 0 mm 3 m/S 696 mmHg 79%
    06:00 +18°C° 0 mm 3 m/S 696 mmHg 75%
    07:00 +19°C° 0 mm 3 m/S 696 mmHg 71%
    08:00 +20°C° 0 mm 4 m/S 696 mmHg 67%
    09:00 +22°C° 0 mm 3 m/S 697 mmHg 59%
    10:00 +25°C° 0 mm 3 m/S 697 mmHg 50%
    11:00 +27°C° 0 mm 3 m/S 697 mmHg 42%
    12:00 +27°C° 0 mm 3 m/S 697 mmHg 40%
    13:00 +28°C° 0 mm 3 m/S 696 mmHg 37%
    14:00 +29°C° 0 mm 2 m/S 696 mmHg 34%
    15:00 +29°C° 0 mm 2 m/S 695 mmHg 35%
    16:00 +28°C° 0 mm 2 m/S 695 mmHg 36%
    17:00 +28°C° 0 mm 1 m/S 695 mmHg 37%
    18:00 +26°C° 0 mm 1 m/S 695 mmHg 42%
    19:00 +24°C° 0 mm 2 m/S 695 mmHg 47%
    20:00 +21°C° 0 mm 2 m/S 695 mmHg 52%
    21:00 +21°C° 0 mm 2 m/S 695 mmHg 56%
    22:00 +20°C° 0 mm 2 m/S 695 mmHg 59%
    23:00 +20°C° 0 mm 2 m/S 696 mmHg 62%

    Morgen, 19 April, Freitag

    Zeit Temperatur Niederschläge Wind Luftdruck Luftfeuchtigkeit
    00:00 +20°C° 0 mm 2 m/S 696 mmHg 66%
    01:00 +20°C° 0 mm 3 m/S 696 mmHg 69%
    02:00 +19°C° 0 mm 3 m/S 696 mmHg 73%
    03:00 +19°C° 0 mm 3 m/S 696 mmHg 75%
    04:00 +19°C° 0 mm 3 m/S 696 mmHg 78%
    05:00 +19°C° 0 mm 3 m/S 696 mmHg 80%
    06:00 +20°C° 0 mm 2 m/S 696 mmHg 76%
    07:00 +20°C° 0 mm 2 m/S 697 mmHg 72%
    08:00 +21°C° 0 mm 2 m/S 697 mmHg 67%
    09:00 +24°C° 0 mm 2 m/S 698 mmHg 58%
    10:00 +26°C° 0 mm 2 m/S 698 mmHg 49%
    11:00 +27°C° 0 mm 2 m/S 698 mmHg 40%
    12:00 +28°C° 0 mm 2 m/S 698 mmHg 38%
    13:00 +29°C° 0 mm 2 m/S 697 mmHg 36%
    14:00 +30°C° 0 mm 2 m/S 697 mmHg 34%
    15:00 +29°C° 0 mm 2 m/S 697 mmHg 34%
    16:00 +29°C° 0 mm 3 m/S 696 mmHg 35%
    17:00 +29°C° 0 mm 4 m/S 696 mmHg 36%
    18:00 +27°C° 0 mm 4 m/S 696 mmHg 42%
    19:00 +25°C° 0 mm 4 m/S 696 mmHg 47%
    20:00 +22°C° 0 mm 5 m/S 696 mmHg 53%
    21:00 +22°C° 0 mm 5 m/S 697 mmHg 55%
    22:00 +22°C° 0 mm 5 m/S 697 mmHg 58%
    23:00 +22°C° 0 mm 5 m/S 697 mmHg 61%

    übermorgen, 20 April, Samstag

    Zeit Temperatur Niederschläge Wind Luftdruck Luftfeuchtigkeit
    00:00 +21°C° 0 mm 5 m/S 697 mmHg 63%
    01:00 +21°C° 0 mm 4 m/S 697 mmHg 64%
    02:00 +21°C° 0 mm 4 m/S 697 mmHg 66%
    03:00 +20°C° 0.3 mm 4 m/S 697 mmHg 70%
    04:00 +20°C° 0.3 mm 4 m/S 697 mmHg 74%
    05:00 +19°C° 0.3 mm 3 m/S 697 mmHg 78%
    06:00 +19°C° 0.2 mm 4 m/S 697 mmHg 77%
    07:00 +20°C° 0.2 mm 4 m/S 698 mmHg 77%
    08:00 +20°C° 0.2 mm 5 m/S 698 mmHg 76%
    09:00 +21°C° 0.6 mm 5 m/S 699 mmHg 70%
    10:00 +23°C° 0.6 mm 4 m/S 699 mmHg 63%
    11:00 +26°C° 0.6 mm 4 m/S 699 mmHg 57%
    12:00 +26°C° 1.2 mm 4 m/S 699 mmHg 57%
    13:00 +26°C° 1.2 mm 4 m/S 698 mmHg 57%
    14:00 +26°C° 1.2 mm 4 m/S 698 mmHg 58%
    15:00 +25°C° 0.5 mm 5 m/S 697 mmHg 62%
    16:00 +23°C° 0.5 mm 6 m/S 697 mmHg 66%
    17:00 +22°C° 0.5 mm 7 m/S 697 mmHg 70%
    18:00 +21°C° 0.8 mm 8 m/S 697 mmHg 74%
    19:00 +20°C° 0.8 mm 8 m/S 697 mmHg 78%
    20:00 +18°C° 0.8 mm 9 m/S 698 mmHg 81%
    21:00 +18°C° 0.6 mm 9 m/S 698 mmHg 82%
    22:00 +18°C° 0.6 mm 9 m/S 698 mmHg 83%
    23:00 +17°C° 0.6 mm 8 m/S 698 mmHg 84%

    21 April, Sonntag

    Zeit Temperatur Niederschläge Wind Luftdruck Luftfeuchtigkeit
    00:00 +17°C° 0.3 mm 8 m/S 698 mmHg 84%
    01:00 +17°C° 0.3 mm 8 m/S 698 mmHg 85%
    02:00 +16°C° 0.3 mm 7 m/S 698 mmHg 85%
    03:00 +16°C° 0.1 mm 8 m/S 698 mmHg 84%
    04:00 +15°C° 0.1 mm 8 m/S 698 mmHg 83%
    05:00 +15°C° 0.1 mm 8 m/S 698 mmHg 83%
    06:00 +13°C° 1 mm 8 m/S 699 mmHg 82%
    07:00 +14°C° 1 mm 7 m/S 699 mmHg 82%
    08:00 +14°C° 1 mm 7 m/S 700 mmHg 82%
    09:00 +15°C° 0.7 mm 7 m/S 700 mmHg 78%
    10:00 +15°C° 0.7 mm 8 m/S 701 mmHg 75%
    11:00 +16°C° 0.7 mm 8 m/S 702 mmHg 71%
    12:00 +17°C° 0.2 mm 8 m/S 701 mmHg 66%
    13:00 +17°C° 0.2 mm 7 m/S 701 mmHg 61%
    14:00 +18°C° 0.2 mm 7 m/S 701 mmHg 55%
    15:00 +18°C° 0 mm 7 m/S 701 mmHg 54%
    16:00 +18°C° 0 mm 7 m/S 701 mmHg 53%
    17:00 +17°C° 0 mm 6 m/S 701 mmHg 51%
    18:00 +16°C° 0 mm 6 m/S 701 mmHg 56%
    19:00 +15°C° 0 mm 5 m/S 702 mmHg 62%
    20:00 +13°C° 0 mm 5 m/S 702 mmHg 67%
    21:00 +13°C° 0 mm 5 m/S 702 mmHg 63%
    22:00 +13°C° 0 mm 5 m/S 703 mmHg 59%
    23:00 +13°C° 0 mm 5 m/S 703 mmHg 55%

    22 April, Montag

    Zeit Temperatur Niederschläge Wind Luftdruck Luftfeuchtigkeit
    00:00 +13°C° 0 mm 4 m/S 703 mmHg 53%
    01:00 +13°C° 0 mm 4 m/S 702 mmHg 51%
    02:00 +13°C° 0 mm 4 m/S 702 mmHg 49%
    03:00 +13°C° 0 mm 3 m/S 702 mmHg 51%
    04:00 +12°C° 0 mm 3 m/S 702 mmHg 53%
    05:00 +13°C° 0 mm 2 m/S 701 mmHg 55%
    06:00 +14°C° 0 mm 2 m/S 702 mmHg 56%
    07:00 +14°C° 0 mm 2 m/S 702 mmHg 56%
    08:00 +15°C° 0 mm 2 m/S 703 mmHg 57%
    09:00 +17°C° 0 mm 2 m/S 703 mmHg 55%
    10:00 +19°C° 0 mm 2 m/S 703 mmHg 52%
    11:00 +20°C° 0 mm 2 m/S 703 mmHg 50%
    12:00 +21°C° 0.1 mm 2 m/S 703 mmHg 49%
    13:00 +22°C° 0.1 mm 3 m/S 702 mmHg 47%
    14:00 +22°C° 0.1 mm 3 m/S 702 mmHg 46%
    15:00 +22°C° 0 mm 3 m/S 701 mmHg 45%
    16:00 +22°C° 0 mm 3 m/S 701 mmHg 44%
    17:00 +22°C° 0 mm 3 m/S 701 mmHg 43%
    18:00 +20°C° 0 mm 3 m/S 701 mmHg 48%
    19:00 +18°C° 0 mm 3 m/S 701 mmHg 54%
    20:00 +15°C° 0 mm 4 m/S 701 mmHg 60%
    21:00 +15°C° 0 mm 4 m/S 701 mmHg 63%
    22:00 +15°C° 0 mm 4 m/S 701 mmHg 67%
    23:00 +15°C° 0 mm 5 m/S 702 mmHg 70%

    23 April, Dienstag

    Zeit Temperatur Niederschläge Wind Luftdruck Luftfeuchtigkeit
    00:00 +14°C° 0 mm 5 m/S 701 mmHg 68%
    01:00 +14°C° 0 mm 6 m/S 701 mmHg 65%
    02:00 +14°C° 0 mm 6 m/S 701 mmHg 63%
    03:00 +14°C° 0 mm 6 m/S 701 mmHg 63%
    04:00 +14°C° 0 mm 7 m/S 701 mmHg 63%
    05:00 +12°C° 0 mm 7 m/S 701 mmHg 63%
    06:00 +14°C° 0 mm 7 m/S 701 mmHg 60%
    07:00 +14°C° 0 mm 7 m/S 702 mmHg 58%
    08:00 +14°C° 0 mm 7 m/S 702 mmHg 55%
    09:00 +16°C° 0 mm 7 m/S 702 mmHg 48%
    10:00 +18°C° 0 mm 7 m/S 703 mmHg 42%
    11:00 +21°C° 0 mm 7 m/S 703 mmHg 35%
    12:00 +22°C° 0 mm 7 m/S 702 mmHg 34%
    13:00 +22°C° 0 mm 7 m/S 702 mmHg 33%
    14:00 +23°C° 0 mm 7 m/S 701 mmHg 32%
    15:00 +22°C° 0 mm 6 m/S 701 mmHg 35%
    16:00 +22°C° 0 mm 6 m/S 700 mmHg 37%
    17:00 +21°C° 0 mm 5 m/S 700 mmHg 40%
    18:00 +20°C° 0 mm 4 m/S 700 mmHg 46%
    19:00 +18°C° 0 mm 4 m/S 700 mmHg 52%
    20:00 +16°C° 0 mm 3 m/S 700 mmHg 58%
    21:00 +15°C° 0 mm 4 m/S 701 mmHg 60%
    22:00 +14°C° 0 mm 4 m/S 701 mmHg 62%
    23:00 +14°C° 0 mm 5 m/S 701 mmHg 63%
    Mehr zeigen